Regional Weather Roundup
Issued by NWS

Home | Current Version | Previous Version | Graphics & Text | Print | Product List | Glossary On
Versions: 1 2 3 4 5 6 7 8 9 10 11 12 13 14 15 16 17 18 19 20 21 22 23 24 25 26 27 28 29 30 31 32 33 34 35 36 37 38 39 40 41 42 43 44 45 46 47 48 49 50
479
ASUS43 KOAX 221302
RWRNE

WEATHER ROUNDUP FOR NEBRASKA
NATIONAL WEATHER SERVICE OMAHA NE
800 AM CDT SUN APR 22 2018

NOTES: SATELLITE DATA IS BEING USED TO AUGMENT CLOUD COVER ABOVE
       12000 FEET.
       "FAIR" INDICATES FEW OR NO CLOUDS BELOW 12,000 FEET WITH NO
       SIGNIFICANT WEATHER AND/OR OBSTRUCTIONS TO VISIBILITY.


NEZ001>004-019>022-054>056-221400-
NEBRASKA PANHANDLE

CITY           SKY/WX    TMP DP  RH WIND       PRES   REMARKS
SCOTTSBLUFF    CLEAR     34  34 100 E7        30.18R FOG     WCI  28
ALLIANCE       CLOUDY    37  37 100 S10       30.18R WCI  30
CHADRON        CLEAR     33  32  96 SW3       30.18R
GORDON         CLOUDY    38  36  92 SW8       30.19S WCI  32
KIMBALL        LGT RAIN  33  33 100 SW6       30.18R VSB<1/4 WCI  27
SIDNEY         FOG       35  33  92 S10       30.20R VSB 3/4 WCI  27
$$

NEZ057>060-069>072-079>082-221400-
SOUTHWEST NEBRASKA

CITY           SKY/WX    TMP DP  RH WIND       PRES   REMARKS
NORTH PLATTE   PTSUNNY   40  38  93 CALM      30.24R FOG
IMPERIAL       CLOUDY    39  39 100 S3        30.23R
LEXINGTON      CLOUDY    39  37  93 NW5       30.24S FOG
MCCOOK         FOG       39  38  96 NW6       30.24R VSB 1   WCI  35
OGALLALA       CLOUDY    38  38  98 CALM      30.23R FOG
$$

NEZ005>010-023>029-035>040-094-221400-
NORTH CENTRAL NEBRASKA

CITY           SKY/WX    TMP DP  RH WIND       PRES   REMARKS
VALENTINE      SUNNY     40  37  89 S5        30.22S
AINSWORTH      SUNNY     38  37  99 S5        30.23S WCI  34
BROKEN BOW     SUNNY     38  34  85 N5        30.24R WCI  34
O`NEILL        SUNNY     41  39  95 CALM      30.27R
ORD            SUNNY     36  35  96 CALM      30.24R FOG
THEDFORD       SUNNY     39  37  92 E3        30.24R
$$

NEZ041-046>049-061>064-073>077-083>087-221400-
SOUTH CENTRAL NEBRASKA

CITY           SKY/WX    TMP DP  RH WIND       PRES   REMARKS
GRAND ISLAND   CLOUDY    43  38  82 N9        30.25R
AURORA         MOSUNNY   40  38  91 N10       30.25R WCI  34
HASTINGS       CLOUDY    41  39  93 N13       30.24R
HEBRON         MOSUNNY   40  36  84 N7        30.22S
HOLDREGE       CLOUDY    39  39 100 N5        30.24R FOG
KEARNEY        CLOUDY    41  39  93 N5        30.25R
YORK             N/A     37  37 100 N7        30.25R WCI  32
$$

NEZ011>018-030>034-042>045-221400-
NORTHEAST NEBRASKA

CITY           SKY/WX    TMP DP  RH WIND       PRES   REMARKS
NORFOLK        CLOUDY    39  34  82 CALM      30.26R
ALBION         MOSUNNY   38  35  91 NW7       30.26R WCI  32
BLAIR          CLOUDY    45  32  60 NE8       30.23R
COLUMBUS       SUNNY     41  31  67 N7        30.26R
FREMONT        CLOUDY    40  34  77 CALM      30.24R
TEKAMAH        CLOUDY    41  33  73 N10       30.25R
WAYNE          CLOUDY    34  33  96 CALM      30.27R
$$

NEZ050>053-065>068-078-088>093-221400-
SOUTHEAST NEBRASKA

CITY           SKY/WX    TMP DP  RH WIND       PRES   REMARKS
LINCOLN        CLOUDY    39  32  76 N6        30.23S WCI  35
OMAHA EPPLEY   CLOUDY    48  33  56 N3        30.23R
BEATRICE       CLOUDY    43  35  74 NE9       30.20S
FALLS CITY     PTSUNNY   47  33  58 NE6       30.17R
NEBRASKA CITY  PTSUNNY   45  33  62 N7        30.20S
PLATTSMOUTH    CLOUDY    44  32  62 NE6       30.22R
$$

NEZ044-045-051>053-067-221400-
OMAHA AREA

CITY           SKY/WX    TMP DP  RH WIND       PRES   REMARKS
OMAHA EPPLEY   CLOUDY    48  33  56 N3        30.23R
BLAIR          CLOUDY    45  32  60 NE8       30.23R
FREMONT        CLOUDY    40  34  77 CALM      30.24R
MILLARD        CLOUDY    49  34  54 NE5       30.23R
PLATTSMOUTH    CLOUDY    44  32  62 NE6       30.22R
WAHOO          CLOUDY    40  30  68 N6        30.24R
$$




USA.gov is the U.S. government's official web portal to all federal, state and local government web resources and services.